Wheeler AAF, HI

3:02 PM HST on July 22, 2017 (GMT -1000)
Wheeler Army Air Field

Weather History for PHHI - February, 2013

Change the Weather History Date:

Sunday, February 24, 2013

  Actual Average Record
Temperature  
Mean Temperature 68 °F -  
Max Temperature 73 °F 74 °F 80 °F (2004)
Min Temperature 64 °F 61 °F 55 °F (2009)
Cooling Degree Days 4    
Growing Degree Days 18 (Base 50)    
Moisture  
Dew Point 60 °F    
Average Humidity 75    
Maximum Humidity 88    
Minimum Humidity 63    
Precipitation  
Precipitation 0.05 in - - ()
Sea Level Pressure  
Sea Level Pressure 30.08 in    
Wind  
Wind Speed 10 mph (NE)    
Max Wind Speed 16 mph    
Max Gust Speed 21 mph    
Visibility 10 miles    
Events Rain    
Averages and records for this station are not official NWS values.
T = Trace of Precipitation, MM = Missing Value Source: NWS Daily Summary

Daily Weather History Graph

Daily Weather History Graph

Search for Another Location

Airport or City:

Trip Planner

Search our weather history database for the weather conditions in past years. The results will help you decide how hot, cold, wet, or windy it might be!

Date:

Astronomy

Feb. 24, 2013 Rise Set
Actual Time 6:56 AM HST 6:34 PM HST
Civil Twilight 6:33 AM HST 6:56 PM HST
Nautical Twilight 6:07 AM HST 7:22 PM HST
Astronomical Twilight 5:42 AM HST 7:48 PM HST
Moon 5:55 PM HST (2/24) 5:58 AM HST (2/24)
Length of Visible Light 12h 23m
Length of Day
11h 38m
Waxing Gibbous, 99% of the Moon is Illuminated
Feb 24
Waxing Gibbous
Feb 25
Full
Mar 4
Last Quarter
Mar 11
New
Mar 19
First Quarter

Hourly Weather History & Observations

Time (HST) Temp. Dew Point Humidity Pressure Visibility Wind Dir Wind Speed Gust Speed Precip Events Conditions
12:55 AM 65.3 °F 61.2 °F 86% 30.11 in 9.0 mi ENE 6.9 mph - 0.04 in Rain Light Rain
1:14 AM 64.4 °F 60.8 °F 88% 30.10 in 10.0 mi NE 6.9 mph - N/A   Mostly Cloudy
1:30 AM 66.2 °F 60.8 °F 83% 30.09 in 10.0 mi ENE 15.0 mph - N/A   Light Drizzle
1:55 AM 64.8 °F 60.3 °F 85% 30.09 in 10.0 mi NE 11.5 mph - 0.01 in   Scattered Clouds
1:56 AM 64.4 °F 60.8 °F 88% 30.09 in 10.0 mi ENE 11.5 mph - N/A Rain Light Rain
2:18 AM 64.4 °F 60.8 °F 88% 30.09 in 10.0 mi ENE 10.4 mph - N/A   Partly Cloudy
2:41 AM 64.4 °F 60.8 °F 88% 30.08 in 10.0 mi ENE 10.4 mph - N/A Rain Light Rain
2:50 AM 64.4 °F 59.0 °F 83% 30.07 in 10.0 mi NE 9.2 mph - N/A   Mostly Cloudy
2:55 AM 65.3 °F 60.1 °F 83% 30.07 in 10.0 mi ENE 10.4 mph - 0.00 in   Light Drizzle
3:05 AM 66.2 °F 59.0 °F 78% 30.07 in 10.0 mi ENE 6.9 mph - N/A   Mostly Cloudy
3:55 AM 64.8 °F 59.4 °F 83% 30.06 in 10.0 mi NE 5.8 mph - 0.00 in   Scattered Clouds
4:55 AM 64.2 °F 58.1 °F 80% 30.06 in 10.0 mi ENE 10.4 mph - N/A   Partly Cloudy
5:55 AM 64.4 °F 57.9 °F 79% 30.07 in 10.0 mi ENE 9.2 mph - N/A   Partly Cloudy
6:55 AM 65.3 °F 57.4 °F 76% 30.08 in 10.0 mi ENE 6.9 mph - N/A   Partly Cloudy
7:55 AM 67.3 °F 57.4 °F 70% 30.09 in 10.0 mi ENE 8.1 mph - N/A   Mostly Cloudy
8:55 AM 67.8 °F 58.3 °F 71% 30.10 in 10.0 mi NE 5.8 mph - N/A   Overcast
9:55 AM 68.9 °F 59.4 °F 72% 30.11 in 10.0 mi NE 13.8 mph - N/A   Overcast
10:55 AM 70.5 °F 59.9 °F 69% 30.11 in 10.0 mi ENE 10.4 mph - N/A   Mostly Cloudy
11:07 AM 71.6 °F 60.8 °F 69% 30.11 in 10.0 mi NNE 10.4 mph - N/A   Light Drizzle
11:16 AM 71.6 °F 60.8 °F 69% 30.10 in 10.0 mi ENE 12.7 mph - N/A   Mostly Cloudy
11:55 AM 72.0 °F 60.1 °F 66% 30.09 in 10.0 mi ENE 16.1 mph - 0.00 in   Scattered Clouds
12:55 PM 73.0 °F 59.7 °F 63% 30.06 in 10.0 mi ENE 12.7 mph - N/A   Partly Cloudy
1:55 PM 72.3 °F 60.6 °F 67% 30.05 in 10.0 mi NE 11.5 mph 20.7 mph N/A   Mostly Cloudy
2:55 PM 71.4 °F 59.9 °F 67% 30.03 in 10.0 mi NE 15.0 mph 18.4 mph N/A   Mostly Cloudy
3:55 PM 71.8 °F 59.9 °F 66% 30.03 in 10.0 mi ENE 11.5 mph 18.4 mph N/A   Overcast
4:30 PM 69.8 °F 60.8 °F 73% 30.04 in 10.0 mi NE 11.5 mph - N/A   Light Drizzle
4:45 PM 69.8 °F 60.8 °F 73% 30.04 in 10.0 mi Calm Calm - N/A   Mostly Cloudy
4:55 PM 69.8 °F 60.6 °F 73% 30.04 in 10.0 mi East 6.9 mph - 0.00 in   Overcast
5:44 PM 69.8 °F 60.8 °F 73% 30.04 in 10.0 mi NE 11.5 mph - N/A   Light Drizzle
5:55 PM 69.3 °F 60.3 °F 73% 30.05 in 8.0 mi ENE 8.1 mph - 0.00 in Rain Light Rain
6:07 PM 68.0 °F 60.8 °F 78% 30.06 in 10.0 mi ENE 6.9 mph - N/A   Mostly Cloudy
6:55 PM 68.4 °F 59.2 °F 72% 30.07 in 10.0 mi NE 11.5 mph 18.4 mph 0.00 in   Mostly Cloudy
7:55 PM 68.4 °F 59.2 °F 72% 30.09 in 10.0 mi NE 11.5 mph 16.1 mph N/A   Mostly Cloudy
8:22 PM 68.0 °F 59.0 °F 73% 30.10 in 10.0 mi NE 12.7 mph - N/A   Light Drizzle
8:31 PM 68.0 °F 59.0 °F 73% 30.10 in 10.0 mi NE 12.7 mph - N/A   Mostly Cloudy
8:55 PM 68.0 °F 58.8 °F 72% 30.10 in 10.0 mi NE 11.5 mph - 0.00 in   Scattered Clouds
9:55 PM 67.6 °F 58.5 °F 72% 30.12 in 10.0 mi NNE 10.4 mph - N/A   Partly Cloudy
10:55 PM 67.3 °F 58.1 °F 72% 30.12 in 10.0 mi ENE 11.5 mph 17.3 mph N/A   Scattered Clouds
11:47 PM 68.0 °F 59.0 °F 73% 30.12 in 10.0 mi ENE 13.8 mph 18.4 mph N/A Rain Rain
11:55 PM 66.9 °F 58.6 °F 75% 30.12 in 10.0 mi NE 11.5 mph 18.4 mph 0.00 in Rain Light Rain
11:57 PM 66.2 °F 59.0 °F 78% 30.12 in 10.0 mi NE 15.0 mph - N/A   Overcast